TimeCDT,TemperatureF,Dew PointF,Humidity,Sea Level PressureIn,VisibilityMPH,Wind Direction,Wind SpeedMPH,Gust SpeedMPH,PrecipitationIn,Events,Conditions,WindDirDegrees,DateUTC
12:15 AM,44.6,35.6,71,29.92,10.0,South,8.1,-,N/A,,Clear,180,2012-10-16 05:15:00
12:35 AM,44.6,35.6,71,29.91,10.0,South,9.2,-,N/A,,Clear,180,2012-10-16 05:35:00
12:55 AM,44.6,35.6,71,29.91,10.0,South,8.1,-,N/A,,Clear,180,2012-10-16 05:55:00
1:15 AM,44.6,35.6,71,29.90,10.0,South,9.2,-,N/A,,Clear,180,2012-10-16 06:15:00
1:35 AM,42.8,35.6,76,29.90,10.0,South,9.2,-,N/A,,Clear,190,2012-10-16 06:35:00
1:55 AM,44.6,35.6,71,29.90,10.0,South,6.9,-,N/A,,Clear,180,2012-10-16 06:55:00
2:15 AM,44.6,37.4,76,29.90,10.0,South,8.1,-,N/A,,Clear,180,2012-10-16 07:15:00
2:35 AM,44.6,37.4,76,29.89,10.0,South,8.1,-,N/A,,Clear,170,2012-10-16 07:35:00
2:55 AM,44.6,37.4,76,29.88,10.0,South,8.1,-,N/A,,Clear,170,2012-10-16 07:55:00
3:15 AM,44.6,41.0,87,29.87,10.0,South,8.1,-,N/A,,Clear,170,2012-10-16 08:15:00
3:35 AM,44.6,41.0,87,29.86,10.0,South,9.2,-,N/A,,Clear,180,2012-10-16 08:35:00
3:55 AM,42.8,41.0,93,29.85,10.0,South,10.4,-,N/A,,Clear,170,2012-10-16 08:55:00
4:15 AM,44.6,41.0,87,29.84,10.0,SSE,9.2,-,N/A,,Clear,160,2012-10-16 09:15:00
4:35 AM,44.6,41.0,87,29.84,10.0,South,12.7,-,N/A,,Scattered Clouds,170,2012-10-16 09:35:00
4:55 AM,44.6,37.4,76,29.84,10.0,South,12.7,-,N/A,,Mostly Cloudy,170,2012-10-16 09:55:00
5:15 AM,46.4,37.4,71,29.83,10.0,South,9.2,-,N/A,,Overcast,170,2012-10-16 10:15:00
5:35 AM,44.6,37.4,76,29.83,10.0,SSE,9.2,-,N/A,,Mostly Cloudy,160,2012-10-16 10:35:00
5:55 AM,44.6,37.4,76,29.82,10.0,SSE,9.2,-,N/A,,Scattered Clouds,160,2012-10-16 10:55:00
6:15 AM,44.6,37.4,76,29.82,10.0,SSE,10.4,-,N/A,,Clear,150,2012-10-16 11:15:00
6:35 AM,44.6,41.0,87,29.81,10.0,SSE,9.2,-,N/A,,Clear,150,2012-10-16 11:35:00
6:55 AM,44.6,41.0,87,29.81,10.0,SSE,11.5,-,N/A,,Clear,150,2012-10-16 11:55:00
7:15 AM,44.6,41.0,87,29.81,10.0,SSE,10.4,-,N/A,,Clear,160,2012-10-16 12:15:00
7:35 AM,44.6,41.0,87,29.81,10.0,SSE,8.1,-,N/A,,Clear,160,2012-10-16 12:35:00
7:55 AM,44.6,41.0,87,29.81,10.0,SSE,11.5,-,N/A,,Clear,160,2012-10-16 12:55:00
8:15 AM,46.4,41.0,81,29.80,10.0,SSE,13.8,-,N/A,,Clear,150,2012-10-16 13:15:00
8:35 AM,48.2,41.0,76,29.79,10.0,SSE,13.8,-,N/A,,Clear,150,2012-10-16 13:35:00
8:55 AM,50.0,41.0,71,29.78,10.0,SSE,15.0,19.6,N/A,,Clear,160,2012-10-16 13:55:00
9:15 AM,50.0,41.0,71,29.78,10.0,SSE,13.8,20.7,N/A,,Clear,150,2012-10-16 14:15:00
9:35 AM,51.8,42.8,71,29.77,10.0,SSE,12.7,-,N/A,,Clear,160,2012-10-16 14:35:00
9:55 AM,53.6,42.8,67,29.76,10.0,SSE,16.1,21.9,N/A,,Clear,160,2012-10-16 14:55:00
10:15 AM,55.4,42.8,63,29.75,10.0,SSE,19.6,25.3,N/A,,Clear,150,2012-10-16 15:15:00
10:35 AM,59.0,42.8,55,29.74,10.0,SSE,19.6,25.3,N/A,,Clear,160,2012-10-16 15:35:00
10:55 AM,59.0,42.8,55,29.73,10.0,SSE,17.3,24.2,N/A,,Clear,160,2012-10-16 15:55:00
11:15 AM,60.8,42.8,52,29.72,10.0,SSE,19.6,26.5,N/A,,Clear,150,2012-10-16 16:15:00
11:35 AM,62.6,42.8,48,29.71,10.0,SSE,19.6,26.5,N/A,,Clear,150,2012-10-16 16:35:00
11:55 AM,62.6,42.8,48,29.69,10.0,SSE,25.3,31.1,N/A,,Clear,160,2012-10-16 16:55:00
12:15 PM,64.4,42.8,45,29.67,10.0,SSE,24.2,32.2,N/A,,Clear,160,2012-10-16 17:15:00
12:35 PM,64.4,42.8,45,29.65,10.0,SSE,21.9,28.8,N/A,,Clear,150,2012-10-16 17:35:00
12:55 PM,66.2,44.6,46,29.63,10.0,SSE,24.2,29.9,N/A,,Clear,150,2012-10-16 17:55:00
1:15 PM,66.2,44.6,46,29.61,10.0,SSE,24.2,32.2,N/A,,Clear,150,2012-10-16 18:15:00
1:35 PM,68.0,44.6,43,29.60,10.0,SE,27.6,33.4,N/A,,Clear,140,2012-10-16 18:35:00
1:55 PM,68.0,46.4,46,29.58,10.0,SSE,19.6,27.6,N/A,,Clear,150,2012-10-16 18:55:00
2:15 PM,68.0,46.4,46,29.58,10.0,SSE,20.7,28.8,N/A,,Clear,160,2012-10-16 19:15:00
2:35 PM,68.0,46.4,46,29.56,10.0,SSE,25.3,33.4,N/A,,Clear,160,2012-10-16 19:35:00
3:15 PM,69.8,46.4,43,29.54,10.0,South,19.6,29.9,N/A,,Clear,170,2012-10-16 20:15:00
3:55 PM,69.8,48.2,46,29.51,10.0,South,24.2,28.8,N/A,,Clear,170,2012-10-16 20:55:00
4:15 PM,69.8,48.2,46,29.52,10.0,South,25.3,35.7,N/A,,Clear,170,2012-10-16 21:15:00
4:35 PM,69.8,48.2,46,29.51,10.0,South,16.1,26.5,N/A,,Clear,190,2012-10-16 21:35:00
4:55 PM,68.0,48.2,49,29.52,10.0,South,13.8,-,N/A,,Scattered Clouds,180,2012-10-16 21:55:00
5:15 PM,66.2,50.0,56,29.52,10.0,South,9.2,19.6,N/A,,Clear,180,2012-10-16 22:15:00
5:35 PM,66.2,50.0,56,29.50,10.0,SSE,11.5,-,N/A,,Scattered Clouds,160,2012-10-16 22:35:00
5:55 PM,64.4,50.0,59,29.48,10.0,SSE,17.3,-,N/A,Rain,Light Rain,150,2012-10-16 22:55:00
6:15 PM,64.4,50.0,59,29.46,10.0,SSE,18.4,29.9,N/A,,Mostly Cloudy,150,2012-10-16 23:15:00
6:35 PM,64.4,50.0,59,29.49,10.0,South,11.5,-,N/A,,Scattered Clouds,170,2012-10-16 23:35:00
6:55 PM,64.4,50.0,59,29.49,10.0,SSE,12.7,-,N/A,,Scattered Clouds,160,2012-10-16 23:55:00
7:15 PM,64.4,50.0,59,29.49,10.0,SSE,10.4,16.1,N/A,,Clear,160,2012-10-17 00:15:00
7:35 PM,64.4,50.0,59,29.48,10.0,SSE,11.5,17.3,N/A,,Clear,160,2012-10-17 00:35:00
7:55 PM,64.4,50.0,59,29.48,10.0,SSE,15.0,-,N/A,,Clear,160,2012-10-17 00:55:00
8:15 PM,64.4,50.0,59,29.48,10.0,South,15.0,19.6,N/A,,Clear,170,2012-10-17 01:15:00
8:35 PM,64.4,50.0,59,29.48,10.0,South,17.3,25.3,N/A,,Scattered Clouds,170,2012-10-17 01:35:00
8:55 PM,62.6,50.0,63,29.47,10.0,South,17.3,-,N/A,,Clear,170,2012-10-17 01:55:00
9:15 PM,62.6,50.0,63,29.47,10.0,South,15.0,23.0,N/A,,Clear,170,2012-10-17 02:15:00
9:35 PM,62.6,50.0,63,29.47,10.0,South,15.0,-,N/A,,Clear,180,2012-10-17 02:35:00
9:55 PM,62.6,50.0,63,29.47,10.0,South,16.1,-,N/A,,Clear,180,2012-10-17 02:55:00
10:15 PM,62.6,50.0,63,29.47,10.0,South,17.3,24.2,N/A,,Clear,190,2012-10-17 03:15:00
10:35 PM,62.6,50.0,63,29.47,10.0,South,15.0,-,N/A,,Clear,190,2012-10-17 03:35:00
10:55 PM,62.6,50.0,63,29.47,10.0,South,15.0,-,N/A,,Clear,190,2012-10-17 03:55:00
11:15 PM,60.8,50.0,68,29.47,10.0,SSW,15.0,-,N/A,,Clear,200,2012-10-17 04:15:00
11:35 PM,60.8,50.0,68,29.47,10.0,South,16.1,-,N/A,,Clear,190,2012-10-17 04:35:00
11:55 PM,60.8,50.0,68,29.47,10.0,SSW,13.8,-,N/A,,Clear,200,2012-10-17 04:55:00